Location: Kernascl�den
(48.0062°N, 3.3198°W)
Time: 21:55:04
(UTC+00:00)

Okean-O - Pass Details

Date: 21 January 2021
Orbit: 638 x 641 km, 98.2° (Epoch: 03 March)

Event Time Altitude Azimuth Distance (km) Brightness Sun altitude
Rises 18:30:34 0° 156° (SSE) 2,935 5.9 -15.5°
Reaches altitude 10° 18:32:46 10° 153° (SSE) 2,030 5.0 -15.8°
Maximum altitude 18:37:08 64° 72° (ENE) 714 2.6 -16.6°
Drops below altitude 10° 18:41:33 10° 352° (N) 2,046 5.2 -17.3°
Sets 18:43:47 0° 349° (N) 2,960 6.1 -17.6°
